Terug naar catalogus

HO-113

XW-3

ActiefAmateurradioSSO
NORAD 50466·PAYLOAD·🇨🇳 China

Gelanceerd Dec 26, 2021 vanaf Taiyuan Satellite Launch Center

Loading…

Volgende Passages (komende 24 uur)

TLE

VersSource: AMSAT

Epoch: Sep 14, 2026, 14:28 UTC

1 50466U 21131B   26257.60313410  .00000385  00000-0  13242-3 0  9990
2 50466  98.4979 349.5066 0004060 173.2704 186.8540 14.41424867247990

Volg HO-113 in realtime met AllMySat

Download on the App Store